Location: Chacón
(10.5789°N, 66.9317°W)
Time: 15:29:26
(UTC+00:00)

Cosmos 1727 Rocket - Pass Details

Date: 10 August 2024
Orbit: 960 x 997 km, 82.9° (Epoch: 08 September)

Event Time Altitude Azimuth Distance (km) Brightness Sun altitude
Rises 00:15:16 0° 3° (N) 3,644 7.2 -21.1°
Reaches altitude 10° 00:17:49 10° 7° (N) 2,694 6.5 -21.6°
Maximum altitude 00:23:53 60° 86° (E) 1,084 3.9 -23.0°
Enters shadow 00:25:34 45° 141° (SE) 1,286 4.2 -23.4°
